Weather History for Somerset, KY

Change the Weather History Date:

Thursday, November 28, 2013

  Actual Average Record
Temperature  
Mean Temperature 27 °F -  
Max Temperature 37 °F 53 °F 75 °F (1998)
Min Temperature 17 °F 33 °F 17 °F (2013)
Degree Days  
Heating Degree Days 38    
Moisture  
Dew Point 19 °F    
Average Humidity 73    
Maximum Humidity 100    
Minimum Humidity 41    
Precipitation  
Precipitation 0.00 in - - ()
Sea Level Pressure  
Sea Level Pressure 30.41 in    
Wind  
Wind Speed 2 mph (SSW)    
Max Wind Speed 8 mph    
Max Gust Speed -    
Visibility 10 miles    
Events      
Averages and records for this station are not official NWS values.
T = Trace of Precipitation, MM = Missing Value Source: NWS Daily Summary

Daily Weather History Graph

Daily Weather History Graph

Search for Another Location

Airport:

Trip Planner

Search our weather history database for the weather conditions in past years. The results will help you decide how hot, cold, wet, or windy it might be!

Date:

Astronomy

Nov. 28, 2013 Rise Set
Actual Time 7:30 AM EST 5:22 PM EST
Civil Twilight 7:02 AM EST 5:50 PM EST
Nautical Twilight 6:30 AM EST 6:22 PM EST
Astronomical Twilight 5:58 AM EST 6:54 PM EST
Moon 2:38 AM EST (11/28) 2:25 PM EST (11/28)
Length of Visible Light 10h 48m
Length of Day
9h 51m
Waning Crescent, 22% of the Moon is Illuminated
Nov 28
Waning Crescent
Dec 2
New
Dec 9
First Quarter
Dec 17
Full
Dec 25
Last Quarter

Hourly Weather History & Observations

Time (EST) Temp. Windchill Dew Point Humidity Pressure Visibility Wind Dir Wind Speed Gust Speed Precip Events Conditions
12:15 AM 26.6 °F - 17.6 °F 69% 30.33 in 10.0 mi Calm Calm - N/A   Overcast
12:35 AM 24.8 °F - 17.6 °F 74% 30.33 in 10.0 mi Calm Calm - N/A   Mostly Cloudy
12:55 AM 23.0 °F 17.0 °F 15.8 °F 74% 30.35 in 10.0 mi WNW 4.6 mph - N/A   Scattered Clouds
1:15 AM 23.0 °F - 15.8 °F 74% 30.34 in 10.0 mi Calm Calm - N/A   Scattered Clouds
1:35 AM 23.0 °F - 14.0 °F 68% 30.33 in 10.0 mi Calm Calm - N/A   Clear
1:55 AM 23.0 °F - 14.0 °F 68% 30.34 in 10.0 mi Calm Calm - N/A   Clear
2:15 AM 23.0 °F 18.4 °F 14.0 °F 68% 30.35 in 10.0 mi NW 3.5 mph - N/A   Clear
2:35 AM 21.2 °F 16.4 °F 15.8 °F 80% 30.35 in 10.0 mi NW 3.5 mph - N/A   Clear
2:55 AM 21.2 °F - 15.8 °F 80% 30.36 in 10.0 mi Calm Calm - N/A   Clear
3:15 AM 21.2 °F - 15.8 °F 80% 30.37 in 10.0 mi Calm Calm - N/A   Clear
3:35 AM 21.2 °F - 15.8 °F 80% 30.37 in 10.0 mi Calm Calm - N/A   Clear
3:55 AM 19.4 °F - 15.8 °F 86% 30.38 in 10.0 mi Calm Calm - N/A   Clear
4:15 AM 19.4 °F - 15.8 °F 86% 30.39 in 10.0 mi Calm Calm - N/A   Clear
4:35 AM 19.4 °F - 15.8 °F 86% 30.38 in 10.0 mi Calm Calm - N/A   Clear
4:55 AM 19.4 °F - 17.6 °F 93% 30.39 in 10.0 mi Calm Calm - N/A   Scattered Clouds
5:15 AM 19.4 °F - 17.6 °F 93% 30.39 in 10.0 mi Calm Calm - N/A   Mostly Cloudy
5:35 AM 19.4 °F - 19.4 °F 100% 30.39 in 10.0 mi Calm Calm - N/A   Scattered Clouds
5:55 AM 19.4 °F - 19.4 °F 100% 30.41 in 10.0 mi Calm Calm - N/A   Clear
6:15 AM 19.4 °F - 17.6 °F 93% 30.41 in 10.0 mi Calm Calm - N/A   Clear
6:35 AM 17.6 °F - 17.6 °F 100% 30.42 in 10.0 mi Calm Calm - N/A   Clear
6:55 AM 19.4 °F - 17.6 °F 93% 30.42 in 10.0 mi Calm Calm - N/A   Clear
7:15 AM 19.4 °F - 17.6 °F 93% 30.44 in 10.0 mi Calm Calm - N/A   Clear
7:35 AM 17.6 °F - 17.6 °F 100% 30.45 in 10.0 mi Calm Calm - N/A   Clear
7:55 AM 19.4 °F - 17.6 °F 93% 30.45 in 10.0 mi Calm Calm - N/A   Clear
8:15 AM 19.4 °F - 17.6 °F 93% 30.45 in 10.0 mi Calm Calm - N/A   Clear
8:35 AM 21.2 °F - 19.4 °F 93% 30.45 in 10.0 mi Calm Calm - N/A   Scattered Clouds
8:55 AM 23.0 °F - 21.2 °F 93% 30.45 in 10.0 mi Calm Calm - N/A   Clear
9:15 AM 23.0 °F 18.4 °F 21.2 °F 93% 30.46 in 10.0 mi SSE 3.5 mph - N/A   Clear
9:35 AM 24.8 °F 20.5 °F 19.4 °F 80% 30.46 in 10.0 mi SSE 3.5 mph - N/A   Clear
9:55 AM 26.6 °F 22.6 °F 19.4 °F 74% 30.47 in 10.0 mi South 3.5 mph - N/A   Clear
10:15 AM 26.6 °F 22.6 °F 19.4 °F 74% 30.47 in 10.0 mi South 3.5 mph - N/A   Clear
10:35 AM 28.4 °F 21.2 °F 19.4 °F 69% 30.47 in 10.0 mi SW 6.9 mph - N/A   Clear
10:55 AM 28.4 °F 22.2 °F 19.4 °F 69% 30.46 in 10.0 mi SSW 5.8 mph - N/A   Clear
11:15 AM 28.4 °F 24.6 °F 21.2 °F 74% 30.45 in 10.0 mi South 3.5 mph - N/A   Clear
11:35 AM 30.2 °F 25.4 °F 21.2 °F 69% 30.45 in 10.0 mi SW 4.6 mph - N/A   Clear
11:55 AM 32.0 °F 28.7 °F 21.2 °F 64% 30.44 in 10.0 mi SSW 3.5 mph - N/A   Clear
12:15 PM 32.0 °F 26.4 °F 19.4 °F 60% 30.43 in 10.0 mi South 5.8 mph - N/A   Clear
12:35 PM 32.0 °F 26.4 °F 21.2 °F 64% 30.42 in 10.0 mi South 5.8 mph - N/A   Clear
12:55 PM 32.0 °F 25.6 °F 21.2 °F 64% 30.41 in 10.0 mi SSE 6.9 mph - N/A   Clear
1:15 PM 33.8 °F 28.6 °F 19.4 °F 56% 30.40 in 10.0 mi SW 5.8 mph - N/A   Clear
1:35 PM 33.8 °F 29.6 °F 21.2 °F 60% 30.40 in 10.0 mi South 4.6 mph - N/A   Clear
1:55 PM 33.8 °F 30.8 °F 19.4 °F 56% 30.39 in 10.0 mi West 3.5 mph - N/A   Clear
2:15 PM 35.6 °F 29.9 °F 21.2 °F 56% 30.38 in 10.0 mi South 6.9 mph - N/A   Clear
2:35 PM 35.6 °F 29.2 °F 19.4 °F 52% 30.38 in 10.0 mi SSW 8.1 mph - N/A   Clear
2:55 PM 37.4 °F 32.8 °F 19.4 °F 48% 30.38 in 10.0 mi WSW 5.8 mph - N/A   Clear
3:15 PM 37.4 °F 32.1 °F 19.4 °F 48% 30.37 in 10.0 mi SW 6.9 mph - N/A   Clear
3:35 PM 37.4 °F 32.8 °F 19.4 °F 48% 30.37 in 10.0 mi SSW 5.8 mph - N/A   Clear
3:55 PM 37.4 °F 32.8 °F 19.4 °F 48% 30.36 in 10.0 mi South 5.8 mph - N/A   Clear
4:15 PM 37.4 °F 32.8 °F 19.4 °F 48% 30.36 in 10.0 mi SSW 5.8 mph - N/A   Clear
4:35 PM 37.4 °F 34.9 °F 19.4 °F 48% 30.36 in 10.0 mi South 3.5 mph - N/A   Clear
4:55 PM 37.4 °F 32.8 °F 17.6 °F 45% 30.35 in 10.0 mi South 5.8 mph - N/A   Clear
5:15 PM 37.4 °F 33.8 °F 15.8 °F 41% 30.35 in 10.0 mi South 4.6 mph - N/A   Clear
5:35 PM 35.6 °F - 17.6 °F 48% 30.35 in 10.0 mi Calm Calm - N/A   Clear
5:55 PM 33.8 °F - 19.4 °F 56% 30.35 in 10.0 mi Calm Calm - N/A   Clear
6:15 PM 35.6 °F - 19.4 °F 52% 30.36 in 10.0 mi Calm Calm - N/A   Clear
6:35 PM 33.8 °F - 19.4 °F 56% 30.38 in 10.0 mi Calm Calm - N/A   Clear
6:55 PM 33.8 °F - 19.4 °F 56% 30.39 in 10.0 mi Calm Calm - N/A   Clear
7:15 PM 33.8 °F - 19.4 °F 56% 30.40 in 10.0 mi Calm Calm - N/A   Clear
7:35 PM 32.0 °F - 21.2 °F 64% 30.41 in 10.0 mi Calm Calm - N/A   Clear
7:55 PM 30.2 °F - 21.2 °F 69% 30.42 in 10.0 mi Calm Calm - N/A   Clear
8:15 PM 32.0 °F - 21.2 °F 64% 30.43 in 10.0 mi Calm Calm - N/A   Clear
8:35 PM 30.2 °F - 23.0 °F 75% 30.44 in 10.0 mi Calm Calm - N/A   Clear
8:55 PM 28.4 °F - 23.0 °F 80% 30.44 in 10.0 mi Calm Calm - N/A   Clear
9:15 PM 28.4 °F - 23.0 °F 80% 30.45 in 10.0 mi Calm Calm - N/A   Clear
9:35 PM 30.2 °F - 23.0 °F 75% 30.46 in 10.0 mi Calm Calm - N/A   Clear
9:55 PM 28.4 °F - 23.0 °F 80% 30.46 in 10.0 mi Calm Calm - N/A   Clear
10:15 PM 28.4 °F - 23.0 °F 80% 30.47 in 10.0 mi Calm Calm - N/A   Clear
10:35 PM 28.4 °F - 23.0 °F 80% 30.47 in 10.0 mi Calm Calm - N/A   Clear
10:55 PM 26.6 °F - 23.0 °F 86% 30.48 in 10.0 mi Calm Calm - N/A   Clear
11:15 PM 26.6 °F - 23.0 °F 86% 30.48 in 10.0 mi Calm Calm - N/A   Clear
11:35 PM 26.6 °F - 23.0 °F 86% 30.49 in 10.0 mi Calm Calm - N/A   Clear
11:55 PM 26.6 °F - 23.0 °F 86% 30.49 in 10.0 mi Calm Calm - N/A   Clear